SM7GXQ Weather Reports


time (UTC)temp
F
wind
direction
speed
knots
gust
knots
rain 1hr
in
rain 24hr
in
rain mn
in
humidity
%
barometer
mb
20260503044503 57 186 2.6 4.3 0.00 0.00 0.00 71 1008.8
20260503041504 55 204 1.7 4.3 0.00 0.00 0.00 71 1008.6
20260503040004 55 182 1.7 4.3 0.00 0.00 0.00 72 1008.6
20260503034504 54 174 0.9 2.6 0.00 0.00 0.00 73 1008.7
20260503031505 55 173 0.9 1.7 0.00 0.00 0.00 70 1008.7
20260503030013 56 189 0.9 2.6 0.00 0.00 0.00 68 1008.7
20260503024504 57 190 0.9 2.6 0.00 0.00 0.00 67 1009.0
20260503021504 58 182 1.7 4.3 0.00 0.00 0.00 65 1009.0
20260503014504 58 175 1.7 4.3 0.00 0.00 0.00 65 1009.3
20260503001504 57 173 1.7 6.1 0.00 0.00 0.00 67 1009.9
20260502231503 56 192 0.9 4.3 0.00 0.00 0.00 69 1010.3
20260502230004 56 175 0.9 2.6 0.00 0.00 0.00 68 1010.6
20260502220004 58 184 1.7 5.2 0.00 0.00 0.00 66 1010.6
20260502214504 58 196 2.6 4.3 0.00 0.00 0.00 64 1010.7
20260502213005 59 182 1.7 7.0 0.00 0.00 0.00 62 1010.8
20260502201504 62 193 5.2 13.0 0.00 0.00 0.00 61 1011.3
20260502200004 62 203 5.2 15.6 0.00 0.00 0.00 60 1011.3
20260502184504 62 197 5.2 13.0 0.00 0.00 0.00 60 1011.0
20260502183005 63 198 7.8 14.8 0.00 0.00 0.00 60 1011.0
20260502181504 63 196 5.2 15.6 0.00 0.00 0.00 59 1011.1
20260502161504 69 196 8.7 19.1 0.00 0.00 0.00 46 1011.5
20260502151503 70 180 7.0 15.6 0.00 0.00 0.00 46 1012.4
20260502121503 69 204 7.8 17.4 0.00 0.00 0.00 45 1015.2
20260502110005 70 205 7.8 18.2 0.00 0.00 0.00 41 1016.3
20260502103004 70 208 7.0 13.9 0.00 0.00 0.00 42 1016.5
20260502101503 70 207 7.0 18.2 0.00 0.00 0.00 43 1016.5
20260502071503 61 202 3.5 6.1 0.00 0.00 0.00 56 1019.0
20260502064503 59 201 3.5 8.7 0.00 0.00 0.00 58 1019.1
20260502063004 58 207 2.6 7.0 0.00 0.00 0.00 60 1019.2
20260502060004 56 220 3.5 7.8 0.00 0.00 0.00 62 1019.2
20260502054504 56 209 4.3 7.8 0.00 0.00 0.00 66 1019.3
20260502051504 54 194 2.6 6.1 0.00 0.00 0.00 72 1019.2